Simultaneous Nadir Overpasses (SNOs) Predictions

Prediction of SNOs between GOES-16 and METOP-C Satellite Orbit:

Table of predicted SNOs for the next 14.0 days since TLE Epoch: 11/23/2024
Index Date Time (GOES-16) GOES-16 Lat,Lon METOP-C Lat,Lon Distance(km) Time Diff (sec)
1 11/23/2024 14:35:16 -0.03, -75.22 0.05, -75.68 51.34 80
2 11/26/2024 02:33:37 0.03, -75.22 0.00, -75.28 7.28 80
3 11/28/2024 14:29:11 -0.03, -75.28 -0.11, -74.85 49.06 80
4 11/30/2024 02:50:52 0.02, -75.27 -0.94, -79.44 475.95 80
5 12/01/2024 02:27:33 0.02, -75.28 0.21, -74.45 94.65 80
6 12/02/2024 14:46:25 -0.01, -75.34 0.81, -79.02 419.15 80
7 12/03/2024 14:25:46 -0.01, -75.35 -0.29, -74.02 151.70 80
8 12/05/2024 02:47:26 0.00, -75.35 -0.73, -78.61 372.59 80
9 12/06/2024 02:24:07 -0.00, -75.36 0.38, -73.62 198.52 80
